Weather History for PHOG - March, 2014

Change the Weather History Date:

Thursday, March 27, 2014

  Actual Average Record
Temperature  
Mean Temperature 76 °F 73 °F  
Max Temperature 86 °F 82 °F 88 °F (1981)
Min Temperature 65 °F 65 °F 56 °F (1965)
Degree Days  
Heating Degree Days 0 0  
Month to date heating degree days 0 0  
Since 1 July heating degree days 0 0  
Cooling Degree Days 11 8  
Month to date cooling degree days 253 208  
Year to date cooling degree days 764 617  
Growing Degree Days 24 (Base 50)    
Moisture  
Dew Point 69 °F    
Average Humidity 79    
Maximum Humidity 100    
Minimum Humidity 58    
Precipitation  
Precipitation 0.00 in 0.09 in 2.18 in (1979)
Month to date precipitation 3.14 2.12  
Year to date precipitation 9.79 6.88  
Snow  
Snow 0.00 in - - ()
Month to date snowfall 0.0  
Since 1 July snowfall 0.0  
Snow Depth 0.00 in    
Sea Level Pressure  
Sea Level Pressure 30.07 in    
Wind  
Wind Speed 5 mph (East)    
Max Wind Speed 20 mph    
Max Gust Speed 25 mph    
Visibility 10 miles    
Events      
T = Trace of Precipitation, MM = Missing Value Source: NWS Daily Summary

Daily Weather History Graph

Daily Weather History Graph

Search for Another Location

Airport or City:

Trip Planner

Search our weather history database for the weather conditions in past years. The results will help you decide how hot, cold, wet, or windy it might be!

Date:

Astronomy

Mar. 27, 2014 Rise Set
Actual Time 6:23 AM HST 6:38 PM HST
Civil Twilight 6:01 AM HST 7:01 PM HST
Nautical Twilight 5:35 AM HST 7:27 PM HST
Astronomical Twilight 5:09 AM HST 7:53 PM HST
Moon 3:58 AM HST (3/27) 3:59 PM HST (3/27)
Length of Visible Light 13h 00m
Length of Day
12h 15m
Waning Crescent, 11% of the Moon is Illuminated
Mar 27
Waning Crescent
Mar 30
New
Apr 6
First Quarter
Apr 14
Full
Apr 21
Last Quarter

Hourly Weather History & Observations

Time (HST) Temp. Heat Index Dew Point Humidity Pressure Visibility Wind Dir Wind Speed Gust Speed Precip Events Conditions
12:54 AM 69.1 °F - 68.0 °F 96% 30.11 in 10.0 mi East 4.6 mph - N/A   Clear
1:54 AM 68.0 °F - 66.9 °F 96% 30.09 in 10.0 mi ESE 6.9 mph - N/A   Clear
2:54 AM 66.9 °F - 66.0 °F 97% 30.08 in 10.0 mi ESE 6.9 mph - N/A   Clear
3:54 AM 66.0 °F - 64.9 °F 96% 30.07 in 10.0 mi SSE 3.5 mph - N/A   Clear
4:54 AM 66.0 °F - 64.9 °F 96% 30.08 in 10.0 mi SE 5.8 mph - N/A   Clear
5:54 AM 64.9 °F - 64.0 °F 97% 30.09 in 10.0 mi SE 4.6 mph - N/A   Clear
6:54 AM 66.0 °F - 64.9 °F 96% 30.11 in 10.0 mi SSE 3.5 mph - N/A   Clear
7:54 AM 72.0 °F - 68.0 °F 87% 30.12 in 10.0 mi Calm Calm - N/A   Clear
8:54 AM 78.1 °F - 70.0 °F 76% 30.11 in 10.0 mi NW 6.9 mph - N/A   Partly Cloudy
9:54 AM 81.0 °F 84.1 °F 69.1 °F 67% 30.11 in 10.0 mi Calm Calm - N/A   Scattered Clouds
10:54 AM 82.9 °F 85.4 °F 66.9 °F 58% 30.10 in 10.0 mi Calm Calm - N/A   Scattered Clouds
11:54 AM 82.0 °F 85.5 °F 69.1 °F 65% 30.08 in 10.0 mi Variable 6.9 mph - N/A   Partly Cloudy
12:54 PM 82.9 °F 86.5 °F 69.1 °F 63% 30.06 in 10.0 mi Calm Calm - N/A   Scattered Clouds
1:32 PM 86.0 °F 91.8 °F 71.6 °F 62% 30.03 in 10.0 mi NE 12.7 mph 19.6 mph N/A   Scattered Clouds
1:54 PM 84.9 °F 90.1 °F 71.1 °F 63% 30.03 in 10.0 mi ENE 16.1 mph 21.9 mph N/A   Scattered Clouds
2:54 PM 82.0 °F 86.3 °F 71.1 °F 69% 30.02 in 10.0 mi SE 5.8 mph - N/A   Mostly Cloudy
3:23 PM 80.6 °F 84.6 °F 71.6 °F 74% 30.00 in 10.0 mi ENE 15.0 mph - N/A   Mostly Cloudy
3:54 PM 81.0 °F 85.2 °F 72.0 °F 74% 30.01 in 10.0 mi ENE 12.7 mph 19.6 mph N/A   Mostly Cloudy
4:54 PM 80.1 °F 83.6 °F 71.1 °F 74% 30.01 in 10.0 mi NNE 5.8 mph - N/A   Scattered Clouds
5:54 PM 80.1 °F 83.6 °F 71.1 °F 74% 30.02 in 10.0 mi East 5.8 mph - N/A   Scattered Clouds
6:54 PM 77.0 °F - 71.1 °F 82% 30.04 in 10.0 mi ENE 3.5 mph - N/A   Scattered Clouds
7:54 PM 75.0 °F - 71.1 °F 87% 30.06 in 10.0 mi East 4.6 mph - N/A   Scattered Clouds
8:54 PM 73.9 °F - 72.0 °F 93% 30.09 in 10.0 mi ESE 4.6 mph - N/A   Overcast
9:54 PM 75.0 °F - 72.0 °F 90% 30.10 in 10.0 mi SE 5.8 mph - N/A   Overcast
10:54 PM 75.0 °F - 69.1 °F 82% 30.10 in 10.0 mi Calm Calm - N/A   Overcast
11:54 PM 73.0 °F - 71.1 °F 93% 30.09 in 10.0 mi East 4.6 mph - N/A   Clear